Theta_e
348 348 352 353 354 353 353 352 353 354 355 354 355 356 354 352 353 352 351 351 348 340 340 342 346 348 348 346 347 345 345 346 348 347 347 347 347 346 346 347 344 343 344
345 345 345 348 351 354 353 352 352 353 352 354 354 355 355 354 353 354 353 352 351 341 346 348 350 352 350 347 349 349 348 348 348 349 347 347 345 346 343 344 342 343 342
342 342 343 345 348 351 352 352 352 352 352 353 353 354 355 355 355 353 351 352 352 346 350 352 352 350 350 350 349 347 345 346 345 345 347 347 345 346 345 342 342 342 342
341 337 341 343 344 346 349 351 351 349 351 353 353 352 355 357 357 355 353 352 354 354 353 353 351 348 349 349 349 342 346 346 345 344 347 347 344 346 343 345 343 339 341
339 340 341 342 343 342 346 348 350 351 349 352 353 352 353 355 356 352 354 355 354 354 354 353 352 345 343 343 347 345 344 345 343 342 346 347 346 346 341 344 344 342 343
342 339 340 342 343 344 345 348 347 349 349 353 355 355 354 354 354 352 352 354 354 354 354 353 351 339 339 342 342 347 344 344 344 345 346 344 346 346 342 343 342 344 342
341 342 340 339 340 342 345 346 348 351 353 353 354 354 355 355 354 353 352 351 353 354 355 354 349 347 344 345 342 342 342 341 343 345 346 344 347 347 344 344 344 342 341
338 337 338 339 339 337 337 343 344 346 348 348 348 349 350 352 353 354 353 352 351 351 351 352 349 347 347 348 349 342 342 343 341 342 345 347 346 344 345 343 344 341 340
337 338 337 338 339 337 338 339 339 340 342 341 340 338 339 338 337 337 339 338 349 351 350 351 348 345 347 342 349 349 345 346 346 341 342 344 344 339 340 339 343 343 341
332 333 334 335 336 336 335 335 337 337 339 341 340 338 338 338 337 337 337 339 344 348 348 349 347 344 344 339 344 346 346 346 346 346 341 341 338 338 338 338 343 343 342
329 327 327 327 331 330 333 330 330 336 336 338 339 339 339 339 339 340 341 343 347 348 348 348 347 345 341 340 344 345 340 344 339 343 346 345 344 343 343 340 340 342 343
331 329 329 328 332 331 335 335 335 334 338 339 338 341 340 339 338 338 338 342 343 342 344 343 342 340 340 342 340 339 338 341 340 341 340 343 344 345 344 343 342 341 341
331 329 326 328 328 327 334 335 336 336 337 337 338 338 339 339 339 339 339 341 341 340 341 340 339 337 337 338 339 336 336 337 337 337 337 340 342 344 344 343 341 340 340
331 330 330 330 331 333 331 331 334 336 335 333 334 334 333 332 337 337 338 338 338 339 338 338 338 338 338 338 337 336 334 333 332 333 336 338 338 337 336 337 336 335 336
328 328 328 329 330 330 328 329 330 326 330 331 332 332 330 326 325 325 330 335 337 338 338 338 338 337 337 336 335 334 334 334 334 333 332 334 335 335 335 335 333 331 333
326 325 327 327 328 327 328 326 324 327 326 325 325 327 324 323 322 321 321 322 324 325 330 332 334 334 333 331 332 332 332 333 335 335 334 333 332 331 332 332 332 331 332
326 325 326 325 326 325 325 326 328 323 325 327 327 327 326 324 322 321 321 322 322 326 329 329 330 331 329 329 329 329 330 331 331 330 331 331 332 332 331 332 333 333 332
325 322 324 326 325 326 325 324 325 325 327 326 323 325 327 327 323 321 320 325 327 326 327 326 324 325 326 326 327 327 328 328 329 329 331 332 332 332 331 331 331 332 332
325 325 326 326 327 326 327 323 323 324 325 326 325 323 325 327 324 322 320 326 326 326 326 324 324 323 323 324 324 324 325 326 327 328 329 330 331 331 331 330 331 332 331
324 323 324 326 326 325 326 327 327 327 327 326 326 327 324 326 328 329 327 326 326 326 326 323 320 321 320 320 320 323 323 322 322 324 324 325 325 327 328 328 328 328 328
322 324 323 324 324 324 324 325 327 327 327 327 329 328 326 328 328 328 327 326 325 325 325 325 324 323 322 323 324 324 324 324 322 324 324 323 323 323 321 324 324 324 325
321 322 323 323 323 323 323 324 324 325 326 326 327 326 323 324 326 327 326 326 326 325 325 325 324 324 324 324 324 324 324 323 323 324 324 324 324 324 323 324 323 322 322
321 322 323 323 323 321 321 321 321 321 320 320 321 322 325 324 325 324 325 326 326 325 325 324 324 324 324 324 323 323 323 323 323 323 323 323 323 323 323 323 323 323 323
321 322 323 323 322 322 322 321 321 319 319 319 320 321 322 323 323 325 325 324 324 324 324 323 323 323 323 323 323 322 321 320 320 320 322 321 321 322 322 322 322 322 322
319 320 322 322 322 322 321 321 322 322 321 320 319 319 320 320 322 323 324 324 323 323 323 323 323 323 322 321 321 320 318 313 312 309 313 319 319 321 321 321 322 322 322
319 317 319 321 321 321 320 320 320 320 320 321 321 320 319 319 318 318 320 323 325 324 322 323 322 323 323 321 320 319 317 313 312 309 307 315 317 318 319 321 321 320 319
Wind_Speed
12 11 13 16 19 26 29 27 32 32 34 33 31 29 29 31 31 33 33 31 31 31 30 28 27 23 19 18 22 25 25 23 21 20 17 16 18 16 15 15 16 13 15
11 13 14 17 20 22 21 25 27 30 29 34 29 29 30 29 31 30 30 30 30 28 27 27 23 20 20 19 14 18 19 19 19 19 17 19 18 16 16 14 13 12 12
12 12 14 17 21 26 24 25 25 28 28 28 31 31 29 30 29 29 30 30 30 29 28 26 23 21 22 19 19 21 18 19 21 19 16 14 14 12 11 12 12 13 11
15 16 15 14 19 25 23 21 22 23 27 28 28 31 31 30 29 29 29 29 28 27 26 26 24 23 24 22 21 21 19 18 19 20 15 15 14 14 11 10 11 11 9
13 14 14 13 14 20 23 24 23 25 23 28 26 27 31 29 29 32 29 28 29 28 26 26 24 24 24 22 19 19 21 22 21 20 14 14 13 13 14 8 10 8 10
10 11 11 8 11 14 20 25 25 24 21 25 27 26 27 27 30 32 33 28 29 29 28 27 25 26 24 23 21 21 18 19 20 17 14 14 14 13 12 10 9 10 11
10 8 9 8 7 5 9 14 18 20 23 27 27 26 27 27 28 33 35 33 30 29 29 27 27 21 25 23 23 21 20 18 18 17 17 15 13 12 12 13 12 12 10
9 9 8 5 4 6 10 8 9 13 17 18 20 21 22 25 27 28 29 32 34 32 29 30 30 24 26 22 19 21 20 18 19 20 17 13 12 13 13 11 11 13 12
8 6 5 5 4 3 2 4 9 12 11 10 13 15 15 18 22 22 20 17 28 29 28 29 30 28 26 21 20 19 17 16 16 17 19 18 19 18 14 12 11 11 11
5 6 7 6 6 6 5 2 3 6 8 6 6 7 9 11 14 17 22 24 25 31 31 28 31 28 25 21 23 21 18 15 15 17 19 21 19 19 18 18 14 16 16
6 8 8 9 9 8 8 5 1 3 5 5 5 7 7 9 10 14 19 21 25 27 25 31 32 30 25 22 26 23 17 17 16 17 15 15 17 19 19 21 21 20 19
3 4 5 8 8 9 9 10 9 5 5 5 3 3 6 11 11 10 15 22 22 24 28 26 29 27 25 25 24 23 21 20 20 19 19 20 19 19 19 20 19 20 21
3 4 3 4 6 9 10 12 7 7 7 5 4 4 4 4 5 7 5 16 20 16 16 20 21 21 24 23 28 30 28 24 22 24 23 21 19 18 16 19 20 20 24
3 5 4 3 3 3 5 7 7 8 8 9 10 7 6 4 4 3 6 8 13 15 14 16 15 16 18 22 25 26 26 25 23 19 18 21 18 14 22 23 23 24 27
5 6 5 2 0 2 3 6 8 10 9 9 8 6 6 6 8 7 5 5 6 7 8 10 12 14 16 17 18 19 20 24 26 27 30 27 23 25 31 29 24 22 26
5 5 4 3 2 1 0 2 4 6 8 11 12 11 11 9 7 7 6 6 6 7 6 3 5 6 5 6 7 9 12 16 22 25 29 32 38 33 21 19 21 24 25
6 6 4 3 4 5 5 5 4 1 4 5 6 6 7 8 8 8 7 6 5 8 5 6 6 6 4 4 4 5 6 8 10 11 13 14 14 15 19 20 20 21 23
4 3 4 4 3 2 3 5 6 5 4 2 3 3 2 4 7 9 8 11 6 4 5 4 4 4 3 3 3 3 5 6 9 9 9 9 11 12 14 17 18 17 20
4 3 3 3 2 0 2 4 5 5 4 3 3 3 5 3 3 6 7 6 4 4 4 6 7 7 7 7 7 6 5 4 3 3 8 10 11 12 13 14 15 16 18
5 5 4 3 3 3 2 2 3 3 4 4 4 5 6 6 1 0 2 4 4 5 6 6 9 11 11 11 10 8 7 8 7 5 3 1 3 5 7 10 12 13 13
4 6 5 3 4 4 2 5 4 3 3 2 2 5 7 4 3 2 1 1 2 3 3 5 4 5 5 5 5 5 5 6 5 4 4 3 4 3 4 5 5 7 11
6 6 6 5 3 3 3 3 4 5 5 4 4 5 4 5 5 4 3 3 3 3 4 4 2 1 1 2 2 2 1 1 1 3 3 3 4 5 5 5 6 7 6
6 7 8 6 4 3 1 1 2 2 2 3 5 6 5 6 6 6 5 6 7 7 7 6 5 5 5 4 3 2 2 3 2 2 3 5 4 4 4 3 3 4 4
8 9 9 8 6 6 4 4 3 3 2 1 1 2 3 5 6 8 9 9 10 9 8 8 8 9 8 6 5 4 4 3 4 5 6 5 6 7 5 4 3 1 1
8 9 10 11 10 9 8 7 7 6 5 4 3 2 2 2 4 8 10 10 11 11 11 11 9 9 9 8 7 7 10 9 8 8 7 7 8 9 8 8 7 6 6
9 10 12 11 10 10 10 7 7 8 8 8 7 7 5 4 4 4 7 10 13 12 11 11 11 12 11 10 10 11 12 10 11 10 8 8 9 8 9 10 8 8 7
Wind_Direction
302 281 253 245 244 240 239 236 234 230 228 235 229 227 229 232 228 231 230 227 237 240 243 245 252 255 253 236 235 241 245 244 251 264 264 273 273 282 275 282 288 283 279
300 290 279 260 246 243 243 235 236 233 232 230 229 226 228 229 232 227 228 225 228 230 234 240 241 237 239 229 237 240 237 239 243 258 261 260 271 270 277 277 280 279 281
298 297 280 267 256 245 245 242 242 238 232 229 230 228 228 229 231 229 226 225 224 228 231 237 237 229 228 219 230 235 240 245 254 256 260 265 256 262 272 276 275 281 275
294 298 298 284 255 251 245 241 235 235 238 231 227 232 228 227 228 227 228 224 224 228 229 232 231 223 219 220 221 237 234 239 246 255 257 260 258 264 267 265 273 273 267
295 300 300 297 285 249 239 232 234 234 237 232 229 229 229 226 229 229 224 224 224 225 227 229 228 227 224 222 216 227 236 239 242 246 240 250 250 250 263 257 266 263 263
295 294 295 298 289 267 239 230 230 232 234 232 230 230 229 230 230 230 227 224 228 228 226 229 229 235 229 221 219 212 230 237 235 230 226 235 246 243 252 242 251 261 280
295 296 304 296 290 261 243 219 223 228 232 228 230 229 227 228 228 228 229 226 225 228 228 225 226 226 226 224 221 223 230 228 232 239 227 225 230 238 232 246 236 244 254
298 298 298 291 326 302 251 230 202 205 216 211 213 218 225 223 223 225 236 230 228 232 232 228 233 216 231 217 223 218 223 225 227 233 234 230 230 222 230 247 247 261 258
312 317 325 330 317 309 295 228 215 219 226 234 246 249 256 256 259 254 253 247 236 232 231 225 227 220 224 219 219 218 217 210 249 243 238 230 223 225 223 223 236 244 253
330 3 21 19 20 1 342 291 229 198 200 197 217 233 246 252 251 243 242 240 232 229 231 227 223 221 221 220 226 220 210 217 220 240 239 236 228 231 236 240 232 237 252
34 43 38 33 22 16 12 15 294 201 176 177 212 234 241 246 244 247 242 227 225 224 221 223 221 216 217 222 227 220 218 211 221 218 234 238 242 239 238 245 246 242 246
10 7 21 27 34 25 20 39 55 121 170 163 219 221 238 256 240 245 246 231 234 236 238 241 226 228 225 219 221 225 229 233 228 231 236 241 242 244 242 241 246 250 252
337 331 353 21 32 38 42 43 50 70 88 99 116 153 174 187 216 230 235 223 224 221 225 226 232 232 233 233 234 234 229 224 231 239 243 246 241 246 252 258 259 260 262
317 319 322 354 29 61 64 71 73 75 80 84 86 103 108 116 126 183 210 206 210 213 221 221 222 229 238 235 230 233 236 238 240 244 252 251 242 254 269 268 275 281 274
311 301 306 294 352 31 68 90 77 88 106 99 94 91 71 82 96 99 116 152 180 196 221 227 228 234 239 242 238 239 240 241 244 246 247 254 270 282 285 277 273 268 265
312 306 288 245 267 266 316 42 93 96 90 99 101 106 106 100 90 91 94 102 118 135 115 119 174 178 184 212 233 244 244 246 243 244 249 258 266 274 273 268 258 262 264
283 274 260 266 265 266 251 220 212 176 148 131 118 102 89 73 63 62 70 86 102 110 157 177 165 151 142 146 168 186 205 216 237 244 247 247 243 252 262 261 264 265 267
274 277 230 245 235 265 244 214 196 192 177 173 183 173 150 78 53 51 56 61 51 70 107 113 120 124 140 157 198 217 240 238 241 247 252 250 249 252 259 259 268 269 271
271 271 232 210 222 113 107 153 171 179 190 196 249 242 210 169 73 57 64 78 85 87 104 99 96 101 101 99 102 103 112 137 149 232 236 242 250 255 265 271 265 267 275
258 265 209 211 249 267 250 211 178 203 220 230 226 217 231 200 222 139 105 92 107 119 120 118 108 108 106 101 100 94 80 84 91 101 102 145 253 263 273 277 275 276 278
255 244 231 225 263 277 265 236 228 234 222 209 215 213 193 189 247 226 276 74 124 141 130 119 103 103 96 93 98 96 97 95 82 94 72 40 58 17 13 351 325 302 291
262 235 233 242 268 276 254 230 217 223 233 236 238 237 225 195 244 256 257 260 237 206 204 183 185 186 182 176 138 133 81 99 63 42 10 12 353 351 357 12 18 18 1
253 224 225 231 225 222 169 162 189 213 237 256 247 247 270 244 244 254 242 231 232 227 226 220 216 239 248 246 247 248 252 280 291 299 306 309 302 304 317 336 343 354 1
235 217 216 225 233 239 239 242 232 235 234 303 313 278 255 253 247 249 243 242 240 236 238 242 241 234 245 249 255 258 275 266 287 287 289 281 282 296 285 275 264 282 332
227 227 225 232 238 245 247 249 250 257 259 267 287 322 344 301 254 244 249 239 242 242 245 247 251 250 248 242 231 235 251 292 312 294 286 275 269 272 269 265 257 259 247
237 237 229 232 240 238 235 243 250 248 251 247 248 253 257 268 286 292 261 257 249 246 251 253 254 247 244 247 245 242 269 303 319 314 290 261 258 262 269 263 248 253 251